Stündliche Wetter Abrera

Heute, 17 Juni, Donnerstag

Zeit Temperatur Niederschläge Wind Luftdruck Luftfeuchtigkeit
00:00 +25°C° 0 mm 1 m/S 746 mmHg 58%
01:00 +25°C° 0 mm 2 m/S 746 mmHg 56%
02:00 +25°C° 0 mm 2 m/S 745 mmHg 53%
03:00 +25°C° 0 mm 3 m/S 745 mmHg 51%
04:00 +25°C° 0 mm 3 m/S 745 mmHg 52%
05:00 +25°C° 0 mm 3 m/S 745 mmHg 53%
06:00 +25°C° 0 mm 3 m/S 745 mmHg 53%
07:00 +25°C° 0.1 mm 3 m/S 745 mmHg 59%
08:00 +25°C° 0.1 mm 3 m/S 745 mmHg 64%
09:00 +24°C° 0.1 mm 3 m/S 745 mmHg 69%
10:00 +26°C° 0.2 mm 4 m/S 745 mmHg 64%
11:00 +27°C° 0.2 mm 5 m/S 745 mmHg 59%
12:00 +28°C° 0.2 mm 6 m/S 744 mmHg 53%
13:00 +28°C° 0.6 mm 6 m/S 744 mmHg 59%
14:00 +28°C° 0.6 mm 6 m/S 744 mmHg 64%
15:00 +27°C° 0.6 mm 6 m/S 744 mmHg 70%
16:00 +27°C° 0.6 mm 5 m/S 744 mmHg 71%
17:00 +26°C° 0.6 mm 4 m/S 744 mmHg 71%
18:00 +26°C° 0.6 mm 3 m/S 745 mmHg 72%
19:00 +25°C° 0.1 mm 2 m/S 745 mmHg 75%
20:00 +25°C° 0.1 mm 1 m/S 745 mmHg 78%
21:00 +24°C° 0.1 mm 1 m/S 745 mmHg 81%
22:00 +24°C° 0 mm 1 m/S 745 mmHg 82%
23:00 +21°C° 0 mm 0 m/S 745 mmHg 83%

Morgen, 18 Juni, Freitag

Zeit Temperatur Niederschläge Wind Luftdruck Luftfeuchtigkeit
00:00 +21°C° 0 mm 0 m/S 745 mmHg 84%
01:00 +21°C° 0 mm 0 m/S 745 mmHg 84%
02:00 +21°C° 0 mm 0 m/S 746 mmHg 85%
03:00 +23°C° 0 mm 1 m/S 746 mmHg 85%
04:00 +23°C° 0 mm 1 m/S 746 mmHg 83%
05:00 +23°C° 0 mm 1 m/S 746 mmHg 81%
06:00 +24°C° 0 mm 1 m/S 746 mmHg 79%
07:00 +26°C° 0 mm 1 m/S 746 mmHg 70%
08:00 +27°C° 0 mm 2 m/S 746 mmHg 60%
09:00 +29°C° 0 mm 2 m/S 747 mmHg 51%
10:00 +30°C° 0 mm 2 m/S 747 mmHg 50%
11:00 +30°C° 0 mm 3 m/S 747 mmHg 49%
12:00 +32°C° 0 mm 4 m/S 747 mmHg 48%
13:00 +32°C° 0 mm 4 m/S 747 mmHg 50%
14:00 +32°C° 0 mm 4 m/S 747 mmHg 51%
15:00 +30°C° 0 mm 3 m/S 747 mmHg 52%
16:00 +30°C° 0 mm 3 m/S 747 mmHg 51%
17:00 +30°C° 0 mm 3 m/S 747 mmHg 50%
18:00 +29°C° 0 mm 3 m/S 747 mmHg 49%
19:00 +28°C° 0 mm 2 m/S 747 mmHg 56%
20:00 +26°C° 0 mm 2 m/S 748 mmHg 64%
21:00 +25°C° 0 mm 1 m/S 748 mmHg 71%
22:00 +25°C° 0 mm 1 m/S 748 mmHg 71%
23:00 +24°C° 0 mm 1 m/S 748 mmHg 71%

übermorgen, 19 Juni, Samstag

Zeit Temperatur Niederschläge Wind Luftdruck Luftfeuchtigkeit
00:00 +24°C° 0 mm 1 m/S 748 mmHg 71%
01:00 +24°C° 0 mm 2 m/S 747 mmHg 70%
02:00 +24°C° 0 mm 2 m/S 747 mmHg 69%
03:00 +24°C° 0 mm 2 m/S 747 mmHg 68%
04:00 +24°C° 0.1 mm 2 m/S 747 mmHg 66%
05:00 +25°C° 0.1 mm 2 m/S 747 mmHg 64%
06:00 +25°C° 0.1 mm 2 m/S 748 mmHg 61%
07:00 +26°C° 0.6 mm 2 m/S 747 mmHg 60%
08:00 +27°C° 0.6 mm 2 m/S 747 mmHg 58%
09:00 +27°C° 0.6 mm 2 m/S 747 mmHg 57%
10:00 +29°C° 0.1 mm 3 m/S 747 mmHg 52%
11:00 +30°C° 0.1 mm 4 m/S 747 mmHg 48%
12:00 +32°C° 0.1 mm 5 m/S 747 mmHg 43%
13:00 +32°C° 0 mm 5 m/S 746 mmHg 44%
14:00 +32°C° 0 mm 6 m/S 746 mmHg 46%
15:00 +32°C° 0 mm 7 m/S 745 mmHg 47%
16:00 +30°C° 0 mm 6 m/S 745 mmHg 50%
17:00 +29°C° 0 mm 6 m/S 745 mmHg 53%
18:00 +28°C° 0 mm 5 m/S 745 mmHg 56%
19:00 +27°C° 0 mm 5 m/S 745 mmHg 64%
20:00 +26°C° 0 mm 4 m/S 746 mmHg 72%
21:00 +25°C° 0 mm 4 m/S 746 mmHg 80%
22:00 +25°C° 0.4 mm 4 m/S 746 mmHg 82%
23:00 +25°C° 0.4 mm 3 m/S 745 mmHg 85%

20 Juni, Sonntag

Zeit Temperatur Niederschläge Wind Luftdruck Luftfeuchtigkeit
00:00 +25°C° 0.4 mm 2 m/S 745 mmHg 87%
01:00 +24°C° 0.3 mm 2 m/S 744 mmHg 87%
02:00 +24°C° 0.3 mm 2 m/S 744 mmHg 86%
03:00 +24°C° 0.3 mm 2 m/S 744 mmHg 86%
04:00 +24°C° 0.3 mm 2 m/S 744 mmHg 82%
05:00 +24°C° 0.3 mm 2 m/S 744 mmHg 79%
06:00 +25°C° 0.3 mm 2 m/S 744 mmHg 75%
07:00 +26°C° 0 mm 4 m/S 744 mmHg 64%
08:00 +27°C° 0 mm 5 m/S 744 mmHg 53%
09:00 +28°C° 0 mm 6 m/S 744 mmHg 42%
10:00 +28°C° 0 mm 6 m/S 744 mmHg 38%
11:00 +29°C° 0 mm 6 m/S 744 mmHg 34%
12:00 +30°C° 0 mm 6 m/S 744 mmHg 30%
13:00 +30°C° 0 mm 5 m/S 744 mmHg 31%
14:00 +30°C° 0 mm 5 m/S 744 mmHg 32%
15:00 +30°C° 0 mm 5 m/S 744 mmHg 32%
16:00 +29°C° 0 mm 5 m/S 743 mmHg 33%
17:00 +29°C° 0 mm 5 m/S 743 mmHg 34%
18:00 +29°C° 0 mm 5 m/S 743 mmHg 35%
19:00 +28°C° 0 mm 4 m/S 743 mmHg 39%
20:00 +26°C° 0 mm 4 m/S 744 mmHg 43%
21:00 +25°C° 0 mm 3 m/S 744 mmHg 47%
22:00 +25°C° 0 mm 3 m/S 744 mmHg 50%
23:00 +24°C° 0 mm 3 m/S 744 mmHg 52%

21 Juni, Montag

Zeit Temperatur Niederschläge Wind Luftdruck Luftfeuchtigkeit
00:00 +24°C° 0 mm 2 m/S 744 mmHg 55%
01:00 +24°C° 0 mm 2 m/S 744 mmHg 56%
02:00 +23°C° 0 mm 2 m/S 744 mmHg 57%
03:00 +23°C° 0 mm 1 m/S 743 mmHg 57%
04:00 +23°C° 0 mm 2 m/S 744 mmHg 55%
05:00 +24°C° 0 mm 2 m/S 744 mmHg 53%
06:00 +24°C° 0 mm 2 m/S 744 mmHg 51%
07:00 +26°C° 0 mm 3 m/S 744 mmHg 46%
08:00 +27°C° 0 mm 4 m/S 744 mmHg 41%
09:00 +28°C° 0 mm 5 m/S 744 mmHg 36%
10:00 +29°C° 0 mm 5 m/S 744 mmHg 35%
11:00 +30°C° 0 mm 5 m/S 744 mmHg 34%
12:00 +32°C° 0 mm 6 m/S 744 mmHg 32%
13:00 +32°C° 0 mm 6 m/S 744 mmHg 31%
14:00 +32°C° 0 mm 6 m/S 744 mmHg 29%
15:00 +32°C° 0 mm 6 m/S 744 mmHg 27%
16:00 +32°C° 0 mm 6 m/S 744 mmHg 28%
17:00 +30°C° 0 mm 5 m/S 744 mmHg 29%
18:00 +30°C° 0 mm 5 m/S 744 mmHg 29%
19:00 +29°C° 0 mm 4 m/S 744 mmHg 32%
20:00 +27°C° 0 mm 3 m/S 745 mmHg 34%
21:00 +26°C° 0 mm 2 m/S 746 mmHg 37%
22:00 +25°C° 0 mm 2 m/S 746 mmHg 42%
23:00 +24°C° 0 mm 2 m/S 746 mmHg 47%

22 Juni, Dienstag

Zeit Temperatur Niederschläge Wind Luftdruck Luftfeuchtigkeit
00:00 +24°C° 0 mm 2 m/S 746 mmHg 51%
01:00 +23°C° 0 mm 2 m/S 746 mmHg 55%
02:00 +23°C° 0 mm 2 m/S 746 mmHg 59%
03:00 +21°C° 0 mm 2 m/S 747 mmHg 63%
04:00 +23°C° 0.1 mm 2 m/S 747 mmHg 61%
05:00 +23°C° 0.1 mm 1 m/S 747 mmHg 59%
06:00 +23°C° 0.1 mm 1 m/S 747 mmHg 57%
07:00 +24°C° 0 mm 2 m/S 748 mmHg 52%
08:00 +26°C° 0 mm 3 m/S 748 mmHg 46%
09:00 +27°C° 0 mm 4 m/S 748 mmHg 40%
10:00 +28°C° 0 mm 5 m/S 748 mmHg 39%
11:00 +28°C° 0 mm 5 m/S 748 mmHg 37%
12:00 +29°C° 0 mm 6 m/S 749 mmHg 35%
13:00 +29°C° 0 mm 6 m/S 749 mmHg 36%
14:00 +29°C° 0 mm 6 m/S 749 mmHg 36%
15:00 +29°C° 0 mm 7 m/S 748 mmHg 36%
16:00 +28°C° 0.1 mm 6 m/S 749 mmHg 41%
17:00 +28°C° 0.1 mm 5 m/S 749 mmHg 45%
18:00 +27°C° 0.1 mm 5 m/S 749 mmHg 49%
19:00 +25°C° 0 mm 4 m/S 750 mmHg 57%
20:00 +23°C° 0 mm 4 m/S 751 mmHg 65%
21:00 +22°C° 0 mm 4 m/S 752 mmHg 72%
22:00 +21°C° 0 mm 3 m/S 752 mmHg 74%
23:00 +21°C° 0 mm 3 m/S 752 mmHg 75%
Mehr zeigen

Wir brauchen deine Erlaubnis

Meteoprog und unser Service Anbieter werden persönliche Daten aufbewahren, so wie Cookies, Geräte Bezeichnung oder ähnliche Technologien von deinem Gerät und Prozess, so wie Persönliche Daten Inhalte und Werbungen, genauso wie social Media und den Verkehr zu analysieren.

  • Aufbewahrung und/oder Zugang zu deiner Geräte Informationen.

    Cookies, Geräte Bezeichnung oder andere Informationen, können aufbewahrt oder Zugang zu deinem Gerät erhalten, für den Grund, der oben angegeben wird.

  • Personalisierte Werbung und Inhalte, Messungen, Einblick in das Publikum und Produkt Entwicklung.

    Werbungen und Inhalte können personalisiert werden, basierend auf ein Profil. Mehr Daten können besser personalisierte Werbungen und Inhalte hinzufügen. Werbung und Inhalte können gezeigt und gemessen werden. Einblicke über das Publikum, welche die Werbung gesehen haben und den Inhalt, können abgeleitet werden. So wie Daten können genutzt werden, um es zu verbessern oder die Benutzer Erfahrung zu verbessern das System und die Software.

Wenn du “Ich stimme zu” klickst, erlaubst du uns, die Cookies zu benutzen die Geräte Bezeichnung, den Web oder ähnliche Technologien zu benutzen. Deine Settings, können in deinem Gerät bei deinem Browser geändert werden.

Für den bestimmten Zweck, berechtigten Interessen beruhen darauf, mehr als auf den Inhalt. Du kannst mehr darüber in unseren Privaten und Cookie Politik lesen.